Location: ?astrovice
(49.6513°N, 14.9287°E)
Time: 09:27:01
(UTC+00:00)

Okean 3 Rocket - Pass Details

Date: 09 April 2020
Orbit: 616 x 644 km, 82.5° (Epoch: 22 May)

Event Time Altitude Azimuth Distance (km) Brightness Sun altitude
Rises 20:47:55 0° 345° (NNW) 2,914 8.1 -25.4°
Reaches altitude 10° 20:50:11 10° 341° (NNW) 2,007 7.1 -25.6°
Maximum altitude 20:54:29 50° 266° (W) 799 4.2 -26.0°
Enters shadow 20:54:36 50° 260° (W) 801 4.2 -26.0°
